Ana Sayfa
METAR-TAF:

METAR-TAF

Havaalanları :

Brooks County Airport

Falfurrias, Teksas, Amerika Birleşik Devletleri

Enlem: 27-12-24N, Boylam: 098-07-16W, yükseklik: 34 m

Güncel hava durumu gözlemi

Rapor saat 06:15 UTC de 29 dakika önce yapıldı.
Rüzgar güney/güneydoğudan 5 kt
Sıcaklık 16°C
Nem 88%
Basınç 1012 hPa
Görüş mesafesi: 11.3 km
Açık gökyüzü

METAR: KBKS 280615Z AUTO 16005KT 7SM CLR 16/14 A2988 RMK AO1 T01560135

Saat: 00:44 (06:44 UTC)


TAF: eksik

4.000'den fazla havaalanı için hava durumu gözlemleri ve tahminleri (METAR ve TAF raporları).

Kullanılabilir istasyonlar harita üzerinde sarı ve kırmızı noktalarla gösterilir.

İstasyonun adını görmek için fareyi noktanın üzerinde gezdirin.

Sonrasında hava gözlem ve tahminlerini görmek için tıklayın.

Haritayı değiştirmek için: yaklaştırmak için siyah artı işaretli yeşil düğmeye ve uzaklaştırmak için de eksi işaretli düğmeye hızla tıklayın; bitişik haritalar için yeşil okları kullanın.


METAR-TAF: